Location: Im Fang
(46.6019°N, 7.2397°E)
Time: 19:43:58
(UTC+00:00)

Cosmos 1850 Rocket - Pass Details

Date: 08 December 2019
Orbit: 754 x 786 km, 74.0° (Epoch: 21 January)

Event Time Altitude Azimuth Distance (km) Brightness Sun altitude
Exits shadow 06:04:13 - 330° (NNW) 2,763 6.4 -9.6°
Reaches altitude 10° 06:05:19 10° 328° (NNW) 2,353 6.0 -9.4°
Maximum altitude 06:10:25 47° 256° (WSW) 1,033 4.4 -8.6°
Drops below altitude 10° 06:15:30 10° 183° (S) 2,338 6.8 -7.8°
Sets 06:17:57 0° 178° (S) 3,260 7.7 -7.4°
